This is the latest recevied weather packets stored in our database for station/object KE9ADS. If no packets are shown the sender has not sent any weather packets the latest 1 day(s).
| Time | Temp. | Humidity | Pressure | Rain* | Wind** | Luminosity | Snow |
|---|---|---|---|---|---|---|---|
| 1778058214 | 5.56° C | 72% | 1015.5 hPa | 0 mm | - | 0 W/m² | - |
| 1778057612 | 5.56° C | 70% | 1015.5 hPa | 0 mm | - | 0 W/m² | - |
| 1778057012 | 6.11° C | 68% | 1015.6 hPa | 0 mm | - | 0 W/m² | - |
| 1778056406 | 6.67° C | 68% | 1015.5 hPa | 0 mm | - | 0 W/m² | - |
| 1778055200 | 7.22° C | 62% | 1015.5 hPa | 0 mm | - | 0 W/m² | - |
| 1778054599 | 7.22° C | 60% | 1015.5 hPa | 0 mm | - | 0 W/m² | - |
| 1778053994 | 7.22° C | 60% | 1015.5 hPa | 0 mm | - | 0 W/m² | - |
| 1778053394 | 7.22° C | 61% | 1015.6 hPa | 0 mm | - | 0 W/m² | - |
| 1778052189 | 6.11° C | 65% | 1015.4 hPa | 0 mm | - | 0 W/m² | - |
| 1778050985 | 7.22° C | 62% | 1015.3 hPa | 0 mm | - | 0 W/m² | - |
| 1778048568 | 7.78° C | 57% | 1015.3 hPa | 0 mm | - | 0 W/m² | - |
| 1778047967 | 8.33° C | 57% | 1015.1 hPa | 0 mm | - | 0 W/m² | - |
| 1778046761 | 8.33° C | 54% | 1015 hPa | 0 mm | - | 0 W/m² | - |
| 1778045557 | 8.89° C | 54% | 1015 hPa | 0 mm | - | 0 W/m² | - |
| 1778044953 | 8.89° C | 52% | 1014.7 hPa | 0 mm | - | 0 W/m² | - |
| 1778043747 | 9.44° C | 51% | 1014.7 hPa | 0 mm | - | 0 W/m² | - |
| 1778042541 | 10° C | 50% | 1014.3 hPa | 0 mm | - | 0 W/m² | - |
| 1778041935 | 10° C | 51% | 1014.2 hPa | 0 mm | - | 0 W/m² | - |
| 1778041333 | 10° C | 52% | 1014.1 hPa | 0 mm | - | 0 W/m² | - |
| 1778040727 | 10° C | 53% | 1014.1 hPa | 0 mm | - | 0 W/m² | - |
| 1778040127 | 10.56° C | 53% | 1014 hPa | 0 mm | - | 0 W/m² | - |
| 1778039527 | 10° C | 56% | 1014.1 hPa | 0 mm | - | 0 W/m² | - |
| 1778038926 | 10° C | 60% | 1014 hPa | 0 mm | - | 0 W/m² | - |
| 1778038326 | 10° C | 62% | 1014 hPa | 0 mm | - | 0 W/m² | - |
| 1778037726 | 10° C | 59% | 1013.8 hPa | 0 mm | - | 0 W/m² | - |
* Rain latest hour (hover to see other rain measurements)
** Current wind speed in m/s (hover to see current wind gust speed)